GAOFEN-2

Last updated on Thu Oct 30 2025 00:02:31 GMT+0000 (Coordinated Universal Time)

1 40118U 14049A 25302.54162124 .00001348 00000+0 18312-3 0 9992 2 40118 98.0446 1.6218 0006074 258.0701 101.9830 14.80479010605103
UTC large
Height (km)
Speed (km/s)
/
Latitude / Longitude
Inclination (degrees)
Orbital Period (minutes)
Azimuth
Elevation
Range (km)
Doppler Factor

Next 0 passes for location: London (51.5072 / 0.1276)

Sorry there are no passes over London.